Location: Holyhead Bay
(53.3667°N, 4.6667°W)
Time: 13:02:04
(UTC+00:00)

IRIDIUM 33 DEB - Pass Details

Date: 25 September 2021
Orbit: 581 x 600 km, 86.4° (Epoch: 26 October)

Event Time Altitude Azimuth Distance (km) Brightness Sun altitude
Rises 05:13:25 0° 352° (N) 2,865 ? -9.2°
Reaches altitude 10° 05:15:40 10° 348° (NNW) 1,953 ? -8.9°
Maximum altitude 05:19:52 55° 271° (W) 722 ? -8.3°
Drops below altitude 10° 05:23:59 10° 194° (SSW) 1,920 ? -7.7°
Sets 05:26:11 0° 190° (S) 2,812 ? -7.3°
